Voltar ao catálogo

COSMOS 1823 DEB

AtivoLEO
NORAD 29360·DEBRIS·🇷🇺 Russia

Lançado Feb 20, 1987 de Plesetsk Cosmodrome

Loading…

Próximas Passagens (próximas 24 horas)

TLE

AtualizadoSource: Space-Track

Época: Sep 13, 2026, 03:17 UTC

1 29360U 87020EB  26256.13696696  .00000312  00000-0  24550-2 0  9998
2 29360  73.7077 141.7778 0063762  84.9238  67.1872 12.39628687156146

Acompanhe COSMOS 1823 DEB em tempo real com AllMySat

Download on the App Store